Weather Roundup
Issued by NWS

Home | Current Version | Previous Version | Text Only | Print | Product List | Glossary On
Versions: 1 2 3 4 5 6 7 8 9 10 11 12 13 14 15 16 17 18 19 20 21 22 23 24 25 26 27 28 29 30 31 32 33 34 35 36 37 38 39 40 41 42 43 44 45 46 47 48 49 50
000
NZUS93 KARX 231259
HRRWXR

CURRENT HOURLY OBSERVATIONS ACROSS
MUCH OF THE UPPER MISSISSIPPI VALLEY
NATIONAL WEATHER SERVICE LA CROSSE WI
800 AM CDT SAT AUG 23 2014


...SOUTHEAST MINNESOTA...


CITY           SKY/WX    TMP DP  RH WIND       PRES   REMARKS
ROCHESTER      FOG       69  68  96 NE5       30.01R VSB 1/4
ROCHESTER/MAYO CLOUDY    69  68  97 NE3       30.01R
WINONA         CLOUDY    72  70  94 CALM      29.99R
AUSTIN         CLOUDY    70  68  94 E5        29.98S FOG
ALBERT LEA     FOG       70  68  94 NE6       29.99S VSB 3/4
DODGE CENTER   DRZL/FOG  70  68  94 E6        30.01R VSB 1/2
PRESTON        FOG       68  68 100 CALM      30.01R VSB 1/2
OWATONNA       DRZL/FOG  70  66  88 E6        30.00R VSB 1/4
FARIBAULT      CLOUDY    72  66  83 NE3       30.00R HAZE
$$

...ELSEWHERE IN MINNESOTA...


CITY           SKY/WX    TMP DP  RH WIND       PRES   REMARKS
MINNEAPOLIS    CLOUDY    70  68  93 NE9       30.00S
INTNL FALLS    CLOUDY    65  65 100 E5        30.07S
DULUTH         CLOUDY    64  60  87 NE8       30.07S
RED WING       CLOUDY    70  68  94 E5        29.99R FOG
REDWOOD FALLS  LGT RAIN  68  67  96 E7        29.99S FOG
MANKATO        CLOUDY    70  64  83 N7        30.00R VSB 3/4
WORTHINGTON      N/A     70  12  11 E12       29.94R
FAIRMONT       CLOUDY    54 N/A N/A N10       29.98F THUNDER
$$

...SOUTHWEST WISCONSIN...


CITY           SKY/WX    TMP DP  RH WIND       PRES   REMARKS
LA CROSSE      CLOUDY    74  70  87 CALM      29.97R
PRAIRIE DU CHI CLOUDY    75  73  92 CALM      29.95R FOG
BOSCOBEL       FOG       75  74  96 CALM      29.97R VSB 1/4
LONE ROCK      FOG       79  75  87 E7        29.97R VSB 1
PLATTEVILLE    CLOUDY    74  73  96 CALM      29.99R
FORT MC COY    FOG       70  70  98 CALM      29.97S VSB<1/4
CAMP DOUGLAS   FOG       73  73 100 E5        29.98R VSB 3/4
VIROQUA        PTSUNNY   71  71 100 E5        29.98S
WIS DELLS      FOG       74  72  95 E3        29.97F VSB<1/4
$$

...ELSEWHERE IN WISCONSIN...


CITY           SKY/WX    TMP DP  RH WIND       PRES   REMARKS
MILWAUKEE      FOG       70  69  97 NE6       30.01R VSB 1/4
MADISON        FOG       75  73  93 SE6       29.99R VSB 1
GREEN BAY      CLOUDY    70  68  93 E3        30.02R FOG
EAU CLAIRE     NOT AVBL
BLACK RVR FLS  CLOUDY    73  73 100 E6        29.97R FOG
MEDFORD        FOG       68  68 100 CALM      30.03R VSB 1/4
WAUSAU         FOG       70  69  97 E5        30.01R VSB 1/2
WIS RAPIDS     FOG       71  70  96 E7        30.00F VSB 1/2
MARSHFIELD     FOG       71  70  96 E6        30.00F VSB 1/2
RICE LAKE      CLOUDY    67  65  93 CALM      30.04F
$$

...NORTHEAST IOWA...


CITY           SKY/WX    TMP DP  RH WIND       PRES   REMARKS
WATERLOO       LGT RAIN  75  73  93 SE3       29.97R FOG
DUBUQUE        CLOUDY    74  74 100 S6        29.98R FOG
DECORAH        FOG       70  70 100 CALM      29.97R VSB 1
MASON CITY     TSTM      70  69  97 SW3       30.02R FOG
CHARLES CITY   CLOUDY    72  72 100 E7        29.99R FOG
OELWEIN        CLOUDY    73  73 100 S3        29.98R
$$

...ELSEWHERE IN IOWA...


CITY           SKY/WX    TMP DP  RH WIND       PRES   REMARKS
DES MOINES     LGT RAIN  73  70  90 S8        29.95R
IOWA CITY      CLOUDY    75  75 100 W9        29.96S FOG
FORT DODGE     CLOUDY    70  68  94 NE6       29.93R
MARSHALLTOWN   TSTM      71  69  93 N8        29.97F FOG
CEDAR RAPIDS   CLOUDY    73  72  96 W16       29.97R
$$

...NORTHERN ILLINOIS...


CITY           SKY/WX    TMP DP  RH WIND       PRES   REMARKS
CHICAGO-OHARE  PTSUNNY   74  72  93 CALM      29.99R FOG
DUPAGE         CLOUDY    75  73  93 CALM      29.99S FOG
CHICAGO-MIDWAY PTSUNNY   78  75  90 W3        29.99R FOG
MOLINE         PTSUNNY   76  73  91 E3        29.95R
ROCKFORD       CLOUDY    75  72  90 SE6       29.99F FOG
STERLING       CLOUDY    75  72  88 S3        29.97S
PEORIA         MOSUNNY   78  74  87 E5        29.96S FOG
$$

NOTE: "FAIR" INDICATES FEW OR NO CLOUDS BELOW 12,000 FEET WITH NO
SIGNIFICANT WEATHER AND/OR OBSTRUCTIONS TO VISIBILITY. WIND
SPEEDS ARE IN MILES-PER-HOUR.



USA.gov is the U.S. government's official web portal to all federal, state and local government web resources and services.